Saint Cloud, MN

1:30 PM CST on December 05, 2016 (GMT -0600)
Saint Cloud Regional

Weather History for KSTC - February, 2012

Change the Weather History Date:

Tuesday, February 21, 2012

  Actual Average Record
Temperature  
Mean Temperature 28 °F 19 °F  
Max Temperature 34 °F 29 °F 55 °F (1961)
Min Temperature 22 °F 10 °F -25 °F (1939)
Degree Days  
Heating Degree Days 37 46  
Month to date heating degree days 841 1034  
Since 1 July heating degree days 5048 6136  
Cooling Degree Days 0 0  
Month to date cooling degree days 0 0  
Year to date cooling degree days 0 0  
Moisture  
Dew Point 27 °F    
Average Humidity 81    
Maximum Humidity 92    
Minimum Humidity 69    
Precipitation  
Precipitation 0.05 in 0.02 in 0.54 in (1957)
Month to date precipitation 0.25 0.39  
Year to date precipitation 0.82 1.04  
Snow  
Snow 0.50 in 0.30 in 5.90 in (1957)
Month to date snowfall 2.6 5.0  
Since 1 July snowfall 18.8 32.2  
Snow Depth 2.00 in    
Sea Level Pressure  
Sea Level Pressure 29.54 in    
Wind  
Wind Speed 14 mph (WSW)    
Max Wind Speed 24 mph    
Max Gust Speed 32 mph    
Visibility 7 miles    
Events Snow    
T = Trace of Precipitation, MM = Missing Value Source: NWS Daily Summary

Daily Weather History Graph

Daily Weather History Graph

Search for Another Location

Airport or City:

Trip Planner

Search our weather history database for the weather conditions in past years. The results will help you decide how hot, cold, wet, or windy it might be!

Date:

Astronomy

Feb. 21, 2012 Rise Set
Actual Time 7:09 AM CST 5:51 PM CST
Civil Twilight 6:39 AM CST 6:21 PM CST
Nautical Twilight 6:04 AM CST 6:55 PM CST
Astronomical Twilight 5:30 AM CST 7:30 PM CST
Moon 6:36 AM CST (2/21) 6:01 PM CST (2/21)
Length of Visible Light 11h 42m
Length of Day
10h 42m
Waning Crescent, 0% of the Moon is Illuminated
Feb 21
Waning Crescent
Feb 21
New
Feb 29
First Quarter
Mar 8
Full
Mar 14
Last Quarter

Hourly Weather History & Observations

Time (CST) Temp. Windchill Dew Point Humidity Pressure Visibility Wind Dir Wind Speed Gust Speed Precip Events Conditions
12:33 AM 32.0 °F 22.5 °F 30.2 °F 93% 29.57 in 2.0 mi SSE 12.7 mph - 0.00 in Snow Light Snow
12:53 AM 32.0 °F 22.1 °F 30.9 °F 96% 29.62 in 2.0 mi SSE 13.8 mph - 0.00 in Snow Light Snow
1:01 AM 32.0 °F 23.6 °F 30.2 °F 93% 29.56 in 1.0 mi SSE 10.4 mph - 0.00 in Snow Light Snow
1:20 AM 32.0 °F 23.0 °F 30.2 °F 93% 29.55 in 0.8 mi SSE 11.5 mph - 0.02 in Snow Light Snow
1:27 AM 32.0 °F 22.5 °F 30.2 °F 93% 29.54 in 1.0 mi SSE 12.7 mph - 0.02 in Snow Light Snow
1:53 AM 32.0 °F 23.0 °F 30.9 °F 96% 29.58 in 1.8 mi SSE 11.5 mph - 0.03 in Snow Light Snow
2:05 AM 32.0 °F 23.6 °F 30.2 °F 93% 29.52 in 2.0 mi SSE 10.4 mph - 0.00 in   Overcast
2:53 AM 33.1 °F 26.1 °F 30.9 °F 92% 29.55 in 2.0 mi South 8.1 mph - 0.01 in Snow Light Snow
3:10 AM 33.8 °F 26.4 °F 30.2 °F 87% 29.49 in 3.0 mi South 9.2 mph - 0.00 in Snow Light Snow
3:53 AM 33.1 °F 26.9 °F 30.9 °F 92% 29.52 in 4.0 mi SSW 6.9 mph - 0.00 in Snow Light Snow
4:08 AM 33.8 °F 27.0 °F 30.2 °F 87% 29.47 in 2.0 mi SW 8.1 mph - 0.00 in Snow Light Snow
4:25 AM 33.8 °F 25.8 °F 30.2 °F 87% 29.47 in 4.0 mi WSW 10.4 mph - 0.01 in Snow Light Snow
4:53 AM 33.1 °F 23.4 °F 30.9 °F 92% 29.52 in 10.0 mi West 13.8 mph - 0.01 in   Overcast
5:05 AM 33.8 °F 24.3 °F 30.2 °F 87% 29.47 in 10.0 mi West 13.8 mph - N/A   Overcast
5:53 AM 33.8 °F 24.8 °F 30.2 °F 87% 29.47 in 10.0 mi West 12.7 mph - N/A   Overcast
6:53 AM 33.1 °F 24.9 °F 28.9 °F 85% 29.53 in 10.0 mi WNW 10.4 mph - N/A   Overcast
7:53 AM 32.0 °F 22.1 °F 28.9 °F 88% 29.54 in 10.0 mi West 13.8 mph - N/A   Overcast
8:45 AM 32.0 °F 24.2 °F 28.4 °F 87% 29.49 in 10.0 mi West 9.2 mph - N/A   Scattered Clouds
8:53 AM 33.1 °F 24.4 °F 28.9 °F 85% 29.55 in 10.0 mi West 11.5 mph - N/A   Mostly Cloudy
9:53 AM 34.0 °F 25.0 °F 30.0 °F 85% 29.55 in 10.0 mi West 12.7 mph - N/A   Overcast
10:37 AM 32.0 °F 20.5 °F 28.4 °F 87% 29.51 in 10.0 mi West 18.4 mph 24.2 mph N/A   Overcast
10:53 AM 32.0 °F 22.1 °F 28.0 °F 85% 29.57 in 10.0 mi West 13.8 mph - N/A   Overcast
11:53 AM 32.0 °F 21.2 °F 27.0 °F 82% 29.56 in 10.0 mi West 16.1 mph - N/A   Overcast
12:01 PM 32.0 °F 20.8 °F 28.4 °F 87% 29.50 in 10.0 mi West 17.3 mph 23.0 mph N/A   Overcast
12:53 PM 32.0 °F 20.1 °F 26.1 °F 79% 29.55 in 10.0 mi West 19.6 mph 26.5 mph N/A   Overcast
1:53 PM 30.9 °F 19.1 °F 26.1 °F 82% 29.55 in 10.0 mi West 18.4 mph 24.2 mph N/A   Overcast
2:30 PM 32.0 °F 20.5 °F 24.8 °F 75% 29.49 in 10.0 mi West 18.4 mph 27.6 mph N/A   Overcast
2:53 PM 30.9 °F 18.4 °F 25.0 °F 79% 29.55 in 10.0 mi West 20.7 mph 27.6 mph N/A   Overcast
3:53 PM 30.2 °F 19.3 °F 24.8 °F 80% 29.51 in 10.0 mi West 15.0 mph 24.2 mph N/A   Overcast
4:53 PM 30.9 °F 19.1 °F 24.1 °F 76% 29.58 in 10.0 mi West 18.4 mph 24.2 mph N/A   Overcast
5:53 PM 30.2 °F 19.3 °F 23.0 °F 75% 29.53 in 10.0 mi West 15.0 mph - N/A   Overcast
6:53 PM 30.9 °F 19.8 °F 21.9 °F 69% 29.60 in 10.0 mi West 16.1 mph - N/A   Overcast
7:53 PM 30.0 °F 18.7 °F 21.9 °F 72% 29.60 in 10.0 mi West 16.1 mph 23.0 mph N/A   Overcast
8:53 PM 30.0 °F 20.0 °F 21.0 °F 69% 29.60 in 10.0 mi West 12.7 mph - N/A   Overcast
9:53 PM 28.4 °F 18.0 °F 19.4 °F 69% 29.54 in 10.0 mi West 12.7 mph - N/A   Clear
10:53 PM 25.0 °F 15.5 °F 19.0 °F 78% 29.60 in 10.0 mi West 9.2 mph - N/A   Clear
11:53 PM 21.9 °F 12.5 °F 17.1 °F 82% 29.58 in 10.0 mi WSW 8.1 mph - N/A   Clear